Weather History for KLHB - April, 2013

Change the Weather History Date:

Monday, April 1, 2013

  Actual Average (KCLL) Record (KCLL)
Temperature  
Mean Temperature 70 °F 65 °F  
Max Temperature 82 °F 76 °F 93 °F (1936)
Min Temperature 59 °F 54 °F 37 °F (1961)
Degree Days  
Heating Degree Days 0 3  
Month to date heating degree days 3  
Since 1 July heating degree days 1562  
Cooling Degree Days 6 3  
Month to date cooling degree days 3  
Year to date cooling degree days 90  
Growing Degree Days 20 (Base 50)    
Moisture  
Dew Point 61 °F    
Average Humidity 73    
Maximum Humidity 97    
Minimum Humidity 43    
Precipitation  
Precipitation 0.00 in 0.09 in 0.91 in (1945)
Month to date precipitation 0.09  
Year to date precipitation 9.35  
Sea Level Pressure  
Sea Level Pressure 30.00 in    
Wind  
Wind Speed 3 mph (ESE)    
Max Wind Speed 10 mph    
Max Gust Speed -    
Visibility 10 miles    
Events      
T = Trace of Precipitation, MM = Missing Value Source: NWS Daily Summary

Daily Weather History Graph

Daily Weather History Graph

Search for Another Location

Airport or City:

Trip Planner

Search our weather history database for the weather conditions in past years. The results will help you decide how hot, cold, wet, or windy it might be!

Date:

Astronomy

Apr. 01, 2013 Rise Set
Actual Time 7:15 AM CDT 7:45 PM CDT
Civil Twilight 6:50 AM CDT 8:10 PM CDT
Nautical Twilight 6:22 AM CDT 8:38 PM CDT
Astronomical Twilight 5:53 AM CDT 9:07 PM CDT
Moon 12:38 AM CDT (4/1) 11:20 AM CDT (4/1)
Length of Visible Light 13h 19m
Length of Day
12h 30m
Waning Gibbous, 67% of the Moon is Illuminated
Apr 1
Waning Gibbous
Apr 2
Last Quarter
Apr 10
New
Apr 18
First Quarter
Apr 25
Full

Hourly Weather History & Observations

Time (CDT) Temp. Heat Index Dew Point Humidity Pressure Visibility Wind Dir Wind Speed Gust Speed Precip Events Conditions
12:15 AM 67.6 °F - 62.6 °F 84% 29.98 in 10.0 mi ENE 5.8 mph - N/A   Overcast
12:35 AM 67.1 °F - 62.6 °F 85% 29.97 in 10.0 mi NE 6.9 mph - N/A   Mostly Cloudy
12:55 AM 66.0 °F - 62.1 °F 87% 29.98 in 10.0 mi Calm Calm - N/A   Scattered Clouds
1:15 AM 64.0 °F - 61.0 °F 90% 29.98 in 10.0 mi North 3.5 mph - N/A   Clear
1:35 AM 64.0 °F - 61.2 °F 90% 29.98 in 10.0 mi NNE 3.5 mph - N/A   Clear
2:15 AM 64.4 °F - 61.2 °F 89% 29.98 in 10.0 mi NE 4.6 mph - N/A   Overcast
2:35 AM 64.4 °F - 61.2 °F 89% 29.99 in 10.0 mi ENE 3.5 mph - N/A   Overcast
2:55 AM 64.0 °F - 61.2 °F 90% 29.99 in 10.0 mi Calm Calm - N/A   Overcast
3:15 AM 63.5 °F - 61.0 °F 91% 29.98 in 10.0 mi Calm Calm - N/A   Mostly Cloudy
3:35 AM 62.6 °F - 60.8 °F 94% 29.98 in 7.0 mi Calm Calm - N/A   Scattered Clouds
4:15 AM 61.5 °F - 60.4 °F 96% 29.99 in 2.0 mi Calm Calm - N/A   Overcast
4:35 AM 59.4 °F - 58.1 °F 96% 29.99 in 7.0 mi Calm Calm - N/A   Scattered Clouds
5:15 AM 59.9 °F - 59.0 °F 97% 30.00 in 7.0 mi Calm Calm - N/A   Overcast
5:35 AM 61.5 °F - 60.3 °F 96% 30.01 in 7.0 mi Calm Calm - N/A   Overcast
5:55 AM 61.9 °F - 60.4 °F 95% 30.01 in 10.0 mi Calm Calm - N/A   Overcast
6:15 AM 62.4 °F - 60.8 °F 94% 30.02 in 10.0 mi Calm Calm - N/A   Overcast
6:35 AM 62.8 °F - 61.0 °F 94% 30.02 in 10.0 mi Calm Calm - N/A   Overcast
6:55 AM 63.0 °F - 61.2 °F 94% 30.03 in 7.0 mi Calm Calm - N/A   Light Drizzle
7:15 AM 63.1 °F - 61.2 °F 93% 30.04 in 10.0 mi Calm Calm - N/A   Overcast
7:35 AM 63.0 °F - 60.8 °F 93% 30.04 in 10.0 mi Calm Calm - N/A   Overcast
8:15 AM 63.3 °F - 61.2 °F 93% 30.05 in 10.0 mi Calm Calm - N/A   Overcast
8:35 AM 63.5 °F - 61.2 °F 92% 30.06 in 10.0 mi NE 3.5 mph - N/A   Overcast
8:55 AM 64.4 °F - 61.7 °F 91% 30.06 in 10.0 mi Calm Calm - N/A   Overcast
9:15 AM 65.5 °F - 61.9 °F 88% 30.06 in 10.0 mi Calm Calm - N/A   Overcast
9:35 AM 67.3 °F - 62.8 °F 85% 30.06 in 10.0 mi Calm Calm - N/A   Overcast
9:55 AM 68.5 °F - 63.1 °F 83% 30.07 in 10.0 mi SE 3.5 mph - N/A   Overcast
10:15 AM 69.8 °F - 63.7 °F 81% 30.07 in 10.0 mi Calm Calm - N/A   Overcast
10:35 AM 69.8 °F - 64.0 °F 82% 30.07 in 10.0 mi SSE 4.6 mph - N/A   Overcast
10:55 AM 71.8 °F - 64.6 °F 78% 30.07 in 10.0 mi SE 4.6 mph - N/A   Overcast
11:15 AM 72.9 °F - 64.6 °F 75% 30.07 in 10.0 mi ESE 4.6 mph - N/A   Overcast
11:35 AM 72.9 °F - 64.4 °F 75% 30.07 in 10.0 mi SE 4.6 mph - N/A   Overcast
11:55 AM 74.1 °F - 64.0 °F 71% 30.07 in 10.0 mi ESE 4.6 mph - N/A   Mostly Cloudy
12:15 PM 73.8 °F - 63.7 °F 71% 30.06 in 10.0 mi ENE 3.5 mph - N/A   Mostly Cloudy
12:35 PM 75.9 °F - 63.1 °F 64% 30.06 in 10.0 mi Calm Calm - N/A   Mostly Cloudy
12:55 PM 74.8 °F - 62.8 °F 66% 30.05 in 10.0 mi Calm Calm - N/A   Mostly Cloudy
1:15 PM 77.9 °F - 63.3 °F 61% 30.05 in 10.0 mi ESE 5.8 mph - N/A   Overcast
1:35 PM 78.3 °F - 62.2 °F 58% 30.04 in 10.0 mi SE 4.6 mph - N/A   Scattered Clouds
1:55 PM 77.5 °F - 62.6 °F 60% 30.03 in 10.0 mi SSE 3.5 mph - N/A   Scattered Clouds
2:15 PM 78.8 °F - 61.9 °F 56% 30.02 in 10.0 mi SE 4.6 mph - N/A   Scattered Clouds
2:35 PM 79.3 °F - 60.6 °F 53% 30.01 in 10.0 mi East 3.5 mph - N/A   Clear
2:55 PM 80.4 °F 80.9 °F 58.6 °F 47% 30.01 in 10.0 mi South 5.8 mph - N/A   Clear
3:15 PM 81.1 °F 81.6 °F 59.9 °F 48% 29.99 in 10.0 mi SE 3.5 mph - N/A   Clear
3:35 PM 80.8 °F 81.3 °F 59.4 °F 48% 29.98 in 10.0 mi Calm Calm - N/A   Clear
3:55 PM 81.5 °F 81.5 °F 57.6 °F 44% 29.98 in 10.0 mi Calm Calm - N/A   Clear
4:15 PM 81.7 °F 81.6 °F 57.9 °F 44% 29.97 in 10.0 mi SSE 4.6 mph - N/A   Clear
4:35 PM 82.6 °F 82.3 °F 57.9 °F 43% 29.96 in 10.0 mi SE 6.9 mph - N/A   Clear
4:55 PM 80.4 °F 80.8 °F 58.1 °F 46% 29.96 in 10.0 mi Calm Calm - N/A   Clear
5:15 PM 81.0 °F 81.1 °F 57.6 °F 45% 29.95 in 10.0 mi Calm Calm - N/A   Clear
5:35 PM 79.9 °F - 59.0 °F 49% 29.94 in 10.0 mi SE 4.6 mph - N/A   Clear
5:55 PM 80.6 °F 80.9 °F 58.1 °F 46% 29.94 in 10.0 mi SE 6.9 mph - N/A   Clear
6:15 PM 78.8 °F - 60.1 °F 53% 29.93 in 10.0 mi Calm Calm - N/A   Clear
6:35 PM 80.2 °F 80.9 °F 59.5 °F 49% 29.93 in 10.0 mi ESE 3.5 mph - N/A   Clear
6:55 PM 79.3 °F - 60.1 °F 52% 29.93 in 10.0 mi ESE 5.8 mph - N/A   Clear
7:15 PM 78.3 °F - 60.4 °F 54% 29.93 in 10.0 mi ESE 4.6 mph - N/A   Clear
7:35 PM 76.5 °F - 61.2 °F 59% 29.93 in 10.0 mi ESE 4.6 mph - N/A   Clear
7:55 PM 75.4 °F - 61.3 °F 62% 29.93 in 10.0 mi ESE 4.6 mph - N/A   Clear
8:15 PM 74.3 °F - 61.3 °F 64% 29.93 in 10.0 mi East 3.5 mph - N/A   Clear
8:35 PM 73.0 °F - 61.0 °F 66% 29.95 in 10.0 mi ESE 3.5 mph - N/A   Clear
8:55 PM 72.7 °F - 61.2 °F 67% 29.96 in 10.0 mi ESE 3.5 mph - N/A   Clear
9:15 PM 71.4 °F - 61.2 °F 70% 29.96 in 10.0 mi Calm Calm - N/A   Clear
9:35 PM 70.7 °F - 61.3 °F 72% 29.97 in 10.0 mi Calm Calm - N/A   Clear
9:55 PM 70.5 °F - 61.7 °F 74% 29.98 in 10.0 mi East 4.6 mph - N/A   Clear
10:15 PM 71.1 °F - 61.3 °F 71% 29.98 in 10.0 mi ESE 5.8 mph - N/A   Clear
10:35 PM 71.1 °F - 61.2 °F 71% 29.98 in 10.0 mi ESE 6.9 mph - N/A   Clear
10:55 PM 70.9 °F - 61.2 °F 71% 29.99 in 10.0 mi ESE 5.8 mph - N/A   Clear
11:15 PM 70.7 °F - 61.3 °F 72% 29.99 in 10.0 mi SE 8.1 mph - N/A   Clear
11:35 PM 70.2 °F - 61.5 °F 74% 30.00 in 10.0 mi SE 10.4 mph - N/A   Clear
11:55 PM 69.1 °F - 61.7 °F 77% 30.00 in 10.0 mi SE 9.2 mph - N/A   Clear